Weather History for Statesville, NC

Change the Weather History Date:

Wednesday, November 27, 2013

  Actual Average (KHKY) Record (KHKY)
Temperature  
Mean Temperature 34 °F -  
Max Temperature 44 °F 57 °F 77 °F (1985)
Min Temperature 25 °F 39 °F 16 °F (1950)
Degree Days  
Heating Degree Days 30    
Moisture  
Dew Point 28 °F    
Average Humidity 72    
Maximum Humidity 99    
Minimum Humidity 46    
Precipitation  
Precipitation 0.23 in - - ()
Sea Level Pressure  
Sea Level Pressure 29.78 in    
Wind  
Wind Speed 6 mph (NW)    
Max Wind Speed 18 mph    
Max Gust Speed 26 mph    
Visibility 9 miles    
Events Rain    
Averages and records for this station are not official NWS values.
T = Trace of Precipitation, MM = Missing Value Source: NWS Daily Summary

Daily Weather History Graph

Daily Weather History Graph

Search for Another Location

Airport:

Trip Planner

Search our weather history database for the weather conditions in past years. The results will help you decide how hot, cold, wet, or windy it might be!

Date:

Astronomy

Nov. 27, 2013 Rise Set
Actual Time 7:11 AM EST 5:11 PM EST
Civil Twilight 6:43 AM EST 5:38 PM EST
Nautical Twilight 6:12 AM EST 6:10 PM EST
Astronomical Twilight 5:41 AM EST 6:41 PM EST
Moon 1:23 AM EST (11/27) 1:37 PM EST (11/27)
Length of Visible Light 10h 54m
Length of Day
9h 59m
Waning Crescent, 32% of the Moon is Illuminated
Nov 27
Waning Crescent
Dec 2
New
Dec 9
First Quarter
Dec 17
Full
Dec 25
Last Quarter

Hourly Weather History & Observations

Time (EST) Temp. Windchill Dew Point Humidity Pressure Visibility Wind Dir Wind Speed Gust Speed Precip Events Conditions
12:15 AM 43.7 °F 40.3 °F 43.2 °F 98% 29.60 in 5.0 mi NW 5.8 mph - 0.02 in Rain Rain
12:35 AM 43.7 °F 41.1 °F 43.3 °F 99% 29.59 in 5.0 mi NNW 4.6 mph - 0.06 in Rain Rain
12:55 AM 44.1 °F 42.5 °F 43.7 °F 99% 29.60 in 5.0 mi NNW 3.5 mph - 0.11 in Rain Rain
1:15 AM 44.2 °F - 43.9 °F 99% 29.59 in 5.0 mi Calm Calm - 0.03 in Rain Rain
1:35 AM 44.2 °F - 43.9 °F 99% 29.59 in 4.0 mi Calm Calm - 0.05 in Rain Light Rain
1:55 AM 44.2 °F - 43.9 °F 99% 29.59 in 3.0 mi Calm Calm - 0.08 in Rain Rain
2:15 AM 44.2 °F 42.7 °F 44.1 °F 99% 29.58 in 3.0 mi ENE 3.5 mph - 0.01 in Rain Rain
2:35 AM 44.2 °F 41.8 °F 44.1 °F 99% 29.55 in 4.0 mi NE 4.6 mph - 0.02 in Rain Light Rain
2:55 AM 44.2 °F - 44.1 °F 99% 29.54 in 1.2 mi Calm Calm - 0.03 in Rain Light Rain
3:15 AM 44.6 °F 43.1 °F 44.2 °F 99% 29.57 in 7.0 mi WNW 3.5 mph - 0.01 in Rain Light Rain
3:35 AM 44.4 °F 42.9 °F 44.1 °F 99% 29.56 in 7.0 mi North 3.5 mph - 0.01 in   Light Drizzle
3:55 AM 44.6 °F 42.2 °F 44.2 °F 99% 29.54 in 7.0 mi North 4.6 mph - 0.01 in   Overcast
4:15 AM 44.6 °F - 44.1 °F 98% 29.56 in 7.0 mi Calm Calm - N/A   Overcast
4:35 AM 44.6 °F - 44.1 °F 98% 29.56 in 7.0 mi Calm Calm - N/A   Overcast
4:55 AM 44.6 °F - 44.2 °F 99% 29.57 in 7.0 mi Calm Calm - N/A   Light Drizzle
5:15 AM 44.6 °F 42.2 °F 44.2 °F 99% 29.56 in 7.0 mi NNW 4.6 mph - N/A   Overcast
5:35 AM 44.6 °F 39.7 °F 40.8 °F 87% 29.56 in 10.0 mi NNW 9.2 mph - N/A   Overcast
5:55 AM 43.9 °F 39.9 °F 39.9 °F 86% 29.57 in 10.0 mi NNW 6.9 mph - N/A   Overcast
6:15 AM 43.7 °F 39.1 °F 38.1 °F 81% 29.57 in 10.0 mi NNW 8.1 mph - N/A   Overcast
6:35 AM 42.8 °F 41.1 °F 37.8 °F 82% 29.60 in 10.0 mi NW 3.5 mph - N/A   Overcast
6:55 AM 42.3 °F 37.9 °F 36.9 °F 81% 29.60 in 10.0 mi North 6.9 mph - N/A   Overcast
7:15 AM 41.5 °F 35.9 °F 34.0 °F 75% 29.60 in 10.0 mi North 9.2 mph - N/A   Overcast
7:35 AM 40.3 °F 33.4 °F 32.4 °F 73% 29.61 in 10.0 mi NNW 11.5 mph 18.4 mph N/A   Overcast
7:55 AM 39.6 °F 33.5 °F 32.5 °F 76% 29.62 in 10.0 mi NNW 9.2 mph 17.3 mph N/A   Drizzle
8:15 AM 38.3 °F 31.4 °F 33.1 °F 81% 29.63 in 10.0 mi NNW 10.4 mph - N/A   Drizzle
8:35 AM 37.9 °F 31.5 °F 32.5 °F 81% 29.63 in 10.0 mi North 9.2 mph - N/A   Drizzle
8:55 AM 37.8 °F 31.3 °F 32.5 °F 81% 29.64 in 10.0 mi NNW 9.2 mph - N/A   Light Drizzle
9:15 AM 36.7 °F 29.4 °F 32.9 °F 86% 29.65 in 7.0 mi NNW 10.4 mph - N/A   Drizzle
9:35 AM 35.8 °F 28.3 °F 32.4 °F 87% 29.65 in 10.0 mi NNW 10.4 mph 18.4 mph N/A Rain Light Rain
9:55 AM 36.3 °F 28.9 °F 32.7 °F 87% 29.66 in 10.0 mi NNW 10.4 mph - N/A Rain Light Rain
10:15 AM 36.0 °F 29.6 °F 32.2 °F 86% 29.67 in 10.0 mi NW 8.1 mph - N/A Rain Rain
10:35 AM 36.1 °F 28.7 °F 30.2 °F 79% 29.68 in 10.0 mi North 10.4 mph 19.6 mph N/A   Overcast
10:55 AM 36.5 °F 31.0 °F 30.4 °F 78% 29.69 in 10.0 mi North 6.9 mph - N/A   Overcast
11:15 AM 38.3 °F 29.7 °F 27.5 °F 65% 29.69 in 10.0 mi NW 15.0 mph 19.6 mph N/A   Overcast
11:35 AM 38.3 °F 29.0 °F 25.5 °F 60% 29.71 in 10.0 mi NW 17.3 mph 23.0 mph N/A   Overcast
11:55 AM 37.4 °F 30.8 °F 26.8 °F 66% 29.72 in 10.0 mi NNW 9.2 mph 24.2 mph N/A   Overcast
12:15 PM 37.0 °F 29.3 °F 29.7 °F 75% 29.72 in 7.0 mi NW 11.5 mph 19.6 mph N/A   Overcast
12:35 PM 36.5 °F 29.7 °F 29.1 °F 75% 29.72 in 10.0 mi NNW 9.2 mph - N/A   Overcast
12:55 PM 36.7 °F 29.9 °F 27.7 °F 70% 29.73 in 10.0 mi NNW 9.2 mph 17.3 mph N/A   Overcast
1:15 PM 37.9 °F 31.5 °F 26.4 °F 63% 29.72 in 10.0 mi NNW 9.2 mph 18.4 mph N/A   Overcast
1:35 PM 39.0 °F 32.3 °F 26.4 °F 61% 29.74 in 10.0 mi NW 10.4 mph 16.1 mph N/A   Overcast
1:55 PM 38.5 °F 32.7 °F 25.2 °F 59% 29.76 in 10.0 mi NNW 8.1 mph - N/A   Overcast
2:15 PM 39.2 °F 33.6 °F 25.5 °F 58% 29.77 in 10.0 mi NW 8.1 mph 17.3 mph N/A   Overcast
2:35 PM 40.1 °F 32.4 °F 25.3 °F 56% 29.79 in 10.0 mi WNW 13.8 mph 23.0 mph N/A   Overcast
2:55 PM 41.0 °F 33.5 °F 24.1 °F 51% 29.81 in 10.0 mi WNW 13.8 mph 26.5 mph N/A   Overcast
3:15 PM 39.7 °F 30.6 °F 21.2 °F 48% 29.84 in 10.0 mi NW 18.4 mph 25.3 mph N/A   Mostly Cloudy
3:35 PM 37.9 °F 30.0 °F 18.7 °F 46% 29.86 in 10.0 mi NW 12.7 mph 20.7 mph N/A   Scattered Clouds
3:55 PM 37.6 °F 28.4 °F 19.8 °F 49% 29.87 in 10.0 mi NW 16.1 mph 26.5 mph N/A   Clear
4:15 PM 36.0 °F 28.0 °F 19.0 °F 50% 29.89 in 10.0 mi NW 11.5 mph 21.9 mph N/A   Clear
4:35 PM 34.2 °F 24.4 °F 17.2 °F 50% 29.92 in 10.0 mi NW 15.0 mph 24.2 mph N/A   Clear
4:55 PM 33.6 °F 26.2 °F 16.2 °F 49% 29.94 in 10.0 mi NW 9.2 mph 19.6 mph N/A   Scattered Clouds
5:15 PM 32.9 °F 23.2 °F 16.3 °F 51% 29.95 in 10.0 mi NNW 13.8 mph 19.6 mph N/A   Scattered Clouds
5:35 PM 32.0 °F 23.6 °F 16.7 °F 53% 29.97 in 10.0 mi NW 10.4 mph 18.4 mph N/A   Scattered Clouds
5:55 PM 32.0 °F 23.6 °F 15.1 °F 50% 29.98 in 10.0 mi NW 10.4 mph 17.3 mph N/A   Clear
6:15 PM 31.8 °F 20.6 °F 14.0 °F 48% 29.99 in 10.0 mi NW 17.3 mph 25.3 mph N/A   Clear
6:35 PM 31.5 °F 20.9 °F 14.0 °F 49% 30.00 in 10.0 mi NW 15.0 mph 19.6 mph N/A   Clear
6:55 PM 30.9 °F 22.8 °F 14.5 °F 51% 30.02 in 10.0 mi WNW 9.2 mph 16.1 mph N/A   Clear
7:15 PM 30.2 °F 23.4 °F 14.7 °F 53% 30.03 in 10.0 mi NW 6.9 mph - N/A   Clear
7:35 PM 29.3 °F 20.2 °F 15.1 °F 55% 30.04 in 10.0 mi WNW 10.4 mph 16.1 mph N/A   Clear
7:55 PM 29.7 °F 20.7 °F 14.4 °F 53% 30.05 in 10.0 mi WNW 10.4 mph 16.1 mph N/A   Clear
8:15 PM 29.8 °F 23.0 °F 14.0 °F 52% 30.06 in 10.0 mi WNW 6.9 mph - N/A   Clear
8:35 PM 29.8 °F 20.9 °F 14.4 °F 53% 30.06 in 10.0 mi NW 10.4 mph - N/A   Clear
8:55 PM 29.3 °F 20.8 °F 14.9 °F 55% 30.08 in 10.0 mi NW 9.2 mph - N/A   Clear
9:15 PM 28.9 °F 21.9 °F 14.9 °F 56% 30.09 in 10.0 mi WNW 6.9 mph - N/A   Clear
9:35 PM 29.3 °F 24.3 °F 14.9 °F 55% 30.10 in 10.0 mi NW 4.6 mph - N/A   Clear
9:55 PM 28.9 °F 21.9 °F 14.9 °F 56% 30.11 in 10.0 mi NW 6.9 mph - N/A   Clear
10:15 PM 27.3 °F - 14.9 °F 60% 30.13 in 10.0 mi Calm Calm - N/A   Clear
10:35 PM 27.5 °F - 14.5 °F 58% 30.14 in 10.0 mi Calm Calm - N/A   Clear
10:55 PM 25.7 °F - 14.9 °F 64% 30.15 in 10.0 mi Calm Calm - N/A   Clear
11:15 PM 28.4 °F 24.6 °F 14.0 °F 55% 30.16 in 10.0 mi WNW 3.5 mph - N/A   Clear
11:35 PM 25.7 °F - 16.7 °F 69% 30.17 in 10.0 mi Calm Calm - N/A   Clear
11:55 PM 25.9 °F - 15.6 °F 65% 30.17 in 10.0 mi Calm Calm - N/A   Clear